When you browse on this site, cookies collect data to enhance your experience and personalize the content and advertising you see.
Visit our Privacy Policy to learn more. By continuing to use the site, you agree to this use of cookies and data.
  • In Österreich
  • Länderverzeichnis
  • Für 7 Tage
  • Wassertemperatur
  • Satellitenkarten
  • Wetterkarte
  • News
  • Widgets
  • user-avatar
    Anmelden

    Stündliche Wetter Igls

    Heute, 26 Mai, Sonntag

    Zeit Temperatur Niederschläge Wind Luftdruck Luftfeuchtigkeit
    00:00 +9°C° 0.4 mm 0 m/S 683 mmHg 95%
    01:00 +9°C° 0.4 mm 0 m/S 683 mmHg 95%
    02:00 +9°C° 0.1 mm 0 m/S 683 mmHg 94%
    03:00 +9°C° 0.1 mm 0 m/S 683 mmHg 94%
    04:00 +8°C° 0.1 mm 0 m/S 683 mmHg 93%
    05:00 +9°C° 0 mm 0 m/S 683 mmHg 92%
    06:00 +10°C° 0 mm 0 m/S 684 mmHg 91%
    07:00 +11°C° 0 mm 0 m/S 684 mmHg 90%
    08:00 +13°C° 0 mm 0 m/S 684 mmHg 84%
    09:00 +14°C° 0 mm 0 m/S 684 mmHg 79%
    10:00 +18°C° 0 mm 1 m/S 684 mmHg 73%
    11:00 +18°C° 0.1 mm 1 m/S 684 mmHg 72%
    12:00 +19°C° 0.1 mm 1 m/S 684 mmHg 70%
    13:00 +20°C° 0.1 mm 1 m/S 684 mmHg 69%
    14:00 +19°C° 0.3 mm 1 m/S 684 mmHg 72%
    15:00 +19°C° 0.3 mm 1 m/S 684 mmHg 75%
    16:00 +18°C° 0.3 mm 1 m/S 683 mmHg 78%
    17:00 +16°C° 0.3 mm 1 m/S 683 mmHg 83%
    18:00 +15°C° 0.3 mm 1 m/S 683 mmHg 88%
    19:00 +13°C° 0.3 mm 0 m/S 683 mmHg 93%
    20:00 +13°C° 0.2 mm 0 m/S 683 mmHg 94%
    21:00 +12°C° 0.2 mm 0 m/S 683 mmHg 95%
    22:00 +11°C° 0.2 mm 0 m/S 683 mmHg 96%
    23:00 +11°C° 0.1 mm 0 m/S 683 mmHg 96%

    Morgen, 27 Mai, Montag

    Zeit Temperatur Niederschläge Wind Luftdruck Luftfeuchtigkeit
    00:00 +11°C° 0.1 mm 0 m/S 682 mmHg 96%
    01:00 +11°C° 0.1 mm 0 m/S 682 mmHg 95%
    02:00 +11°C° 0.1 mm 0 m/S 682 mmHg 95%
    03:00 +11°C° 0.1 mm 0 m/S 682 mmHg 95%
    04:00 +11°C° 0.1 mm 0 m/S 682 mmHg 95%
    05:00 +11°C° 0.3 mm 0 m/S 681 mmHg 95%
    06:00 +11°C° 0.3 mm 0 m/S 681 mmHg 95%
    07:00 +12°C° 0.3 mm 0 m/S 681 mmHg 95%
    08:00 +12°C° 0.7 mm 0 m/S 681 mmHg 95%
    09:00 +13°C° 0.7 mm 1 m/S 681 mmHg 95%
    10:00 +13°C° 0.7 mm 1 m/S 681 mmHg 95%
    11:00 +13°C° 0.5 mm 1 m/S 681 mmHg 93%
    12:00 +14°C° 0.5 mm 1 m/S 681 mmHg 92%
    13:00 +14°C° 0.5 mm 1 m/S 680 mmHg 90%
    14:00 +14°C° 0.3 mm 1 m/S 680 mmHg 88%
    15:00 +15°C° 0.3 mm 1 m/S 680 mmHg 85%
    16:00 +16°C° 0.3 mm 1 m/S 680 mmHg 82%
    17:00 +15°C° 0.4 mm 1 m/S 680 mmHg 87%
    18:00 +14°C° 0.4 mm 1 m/S 679 mmHg 91%
    19:00 +14°C° 0.4 mm 1 m/S 679 mmHg 95%
    20:00 +13°C° 0.9 mm 1 m/S 679 mmHg 96%
    21:00 +13°C° 0.9 mm 1 m/S 679 mmHg 97%
    22:00 +12°C° 0.9 mm 1 m/S 679 mmHg 98%
    23:00 +12°C° 2.1 mm 1 m/S 678 mmHg 98%

    übermorgen, 28 Mai, Dienstag

    Zeit Temperatur Niederschläge Wind Luftdruck Luftfeuchtigkeit
    00:00 +12°C° 2.1 mm 1 m/S 678 mmHg 98%
    01:00 +12°C° 2.1 mm 1 m/S 678 mmHg 98%
    02:00 +11°C° 1.8 mm 1 m/S 677 mmHg 98%
    03:00 +11°C° 1.8 mm 1 m/S 677 mmHg 98%
    04:00 +11°C° 1.8 mm 1 m/S 677 mmHg 97%
    05:00 +11°C° 1.2 mm 1 m/S 677 mmHg 97%
    06:00 +11°C° 1.2 mm 1 m/S 677 mmHg 97%
    07:00 +11°C° 1.2 mm 1 m/S 677 mmHg 97%
    08:00 +11°C° 1.3 mm 1 m/S 677 mmHg 96%
    09:00 +11°C° 1.3 mm 1 m/S 677 mmHg 96%
    10:00 +11°C° 1.3 mm 1 m/S 677 mmHg 96%
    11:00 +11°C° 0.7 mm 1 m/S 677 mmHg 96%
    12:00 +10°C° 0.7 mm 2 m/S 677 mmHg 96%
    13:00 +12°C° 0.7 mm 2 m/S 677 mmHg 96%
    14:00 +10°C° 0.7 mm 2 m/S 677 mmHg 95%
    15:00 +10°C° 0.7 mm 2 m/S 677 mmHg 95%
    16:00 +10°C° 0.7 mm 2 m/S 677 mmHg 95%
    17:00 +10°C° 0.7 mm 2 m/S 677 mmHg 96%
    18:00 +9°C° 0.7 mm 2 m/S 678 mmHg 97%
    19:00 +10°C° 0.7 mm 1 m/S 678 mmHg 97%
    20:00 +10°C° 1 mm 1 m/S 678 mmHg 97%
    21:00 +9°C° 1 mm 1 m/S 679 mmHg 97%
    22:00 +9°C° 1 mm 1 m/S 679 mmHg 97%
    23:00 +7°C° 1.1 mm 2 m/S 679 mmHg 97%

    29 Mai, Mittwoch

    Zeit Temperatur Niederschläge Wind Luftdruck Luftfeuchtigkeit
    00:00 +7°C° 1.1 mm 2 m/S 679 mmHg 97%
    01:00 +7°C° 1.1 mm 2 m/S 679 mmHg 97%
    02:00 +7°C° 0.4 mm 2 m/S 679 mmHg 97%
    03:00 +6°C° 0.4 mm 2 m/S 679 mmHg 97%
    04:00 +6°C° 0.4 mm 2 m/S 679 mmHg 96%
    05:00 +6°C° 0.4 mm 2 m/S 680 mmHg 96%
    06:00 +6°C° 0.4 mm 2 m/S 680 mmHg 95%
    07:00 +6°C° 0.4 mm 2 m/S 680 mmHg 94%
    08:00 +7°C° 0.9 mm 2 m/S 681 mmHg 93%
    09:00 +7°C° 0.9 mm 2 m/S 681 mmHg 92%
    10:00 +7°C° 0.9 mm 2 m/S 681 mmHg 91%
    11:00 +7°C° 0.8 mm 2 m/S 682 mmHg 90%
    12:00 +8°C° 0.8 mm 2 m/S 682 mmHg 89%
    13:00 +8°C° 0.8 mm 2 m/S 682 mmHg 88%
    14:00 +8°C° 0.4 mm 2 m/S 682 mmHg 86%
    15:00 +9°C° 0.4 mm 2 m/S 683 mmHg 85%
    16:00 +9°C° 0.4 mm 2 m/S 683 mmHg 83%
    17:00 +8°C° 0.2 mm 2 m/S 683 mmHg 85%
    18:00 +9°C° 0.2 mm 1 m/S 684 mmHg 88%
    19:00 +8°C° 0.2 mm 1 m/S 684 mmHg 90%
    20:00 +7°C° 0.1 mm 1 m/S 685 mmHg 91%
    21:00 +7°C° 0.1 mm 1 m/S 685 mmHg 91%
    22:00 +6°C° 0.1 mm 1 m/S 686 mmHg 92%
    23:00 +5°C° 0 mm 1 m/S 686 mmHg 91%

    30 Mai, Donnerstag

    Zeit Temperatur Niederschläge Wind Luftdruck Luftfeuchtigkeit
    00:00 +4°C° 0 mm 1 m/S 686 mmHg 90%
    01:00 +4°C° 0 mm 1 m/S 686 mmHg 89%
    02:00 +3°C° 0 mm 1 m/S 687 mmHg 88%
    03:00 +3°C° 0 mm 1 m/S 687 mmHg 87%
    04:00 +3°C° 0 mm 1 m/S 687 mmHg 86%
    05:00 +5°C° 0 mm 1 m/S 688 mmHg 83%
    06:00 +7°C° 0 mm 1 m/S 688 mmHg 80%
    07:00 +9°C° 0 mm 1 m/S 689 mmHg 76%
    08:00 +11°C° 0 mm 1 m/S 689 mmHg 72%
    09:00 +13°C° 0 mm 1 m/S 689 mmHg 67%
    10:00 +14°C° 0 mm 1 m/S 689 mmHg 62%
    11:00 +16°C° 0 mm 1 m/S 690 mmHg 60%
    12:00 +18°C° 0 mm 1 m/S 690 mmHg 58%
    13:00 +19°C° 0 mm 1 m/S 690 mmHg 56%
    14:00 +18°C° 0 mm 1 m/S 690 mmHg 57%
    15:00 +18°C° 0 mm 1 m/S 689 mmHg 57%
    16:00 +16°C° 0 mm 1 m/S 689 mmHg 58%
    17:00 +15°C° 0 mm 1 m/S 689 mmHg 65%
    18:00 +14°C° 0 mm 1 m/S 689 mmHg 71%
    19:00 +13°C° 0 mm 1 m/S 689 mmHg 77%
    20:00 +11°C° 0 mm 1 m/S 689 mmHg 80%
    21:00 +10°C° 0 mm 1 m/S 689 mmHg 83%
    22:00 +8°C° 0 mm 1 m/S 690 mmHg 85%
    23:00 +8°C° 0 mm 1 m/S 690 mmHg 85%

    31 Mai, Freitag

    Zeit Temperatur Niederschläge Wind Luftdruck Luftfeuchtigkeit
    00:00 +8°C° 0 mm 1 m/S 690 mmHg 84%
    01:00 +8°C° 0 mm 1 m/S 690 mmHg 84%
    02:00 +8°C° 0 mm 1 m/S 690 mmHg 83%
    03:00 +8°C° 0 mm 1 m/S 690 mmHg 83%
    04:00 +7°C° 0 mm 2 m/S 690 mmHg 82%
    05:00 +10°C° 0 mm 1 m/S 690 mmHg 78%
    06:00 +11°C° 0 mm 1 m/S 691 mmHg 74%
    07:00 +13°C° 0 mm 1 m/S 691 mmHg 70%
    08:00 +14°C° 0.1 mm 1 m/S 691 mmHg 72%
    09:00 +14°C° 0.1 mm 1 m/S 691 mmHg 74%
    10:00 +15°C° 0.1 mm 1 m/S 691 mmHg 75%
    11:00 +14°C° 0.5 mm 1 m/S 691 mmHg 79%
    12:00 +14°C° 0.5 mm 1 m/S 691 mmHg 82%
    13:00 +14°C° 0.5 mm 1 m/S 691 mmHg 85%
    14:00 +14°C° 0.2 mm 1 m/S 691 mmHg 82%
    15:00 +15°C° 0.2 mm 1 m/S 692 mmHg 80%
    16:00 +16°C° 0.2 mm 1 m/S 692 mmHg 77%
    17:00 +15°C° 0.1 mm 1 m/S 692 mmHg 81%
    18:00 +14°C° 0.1 mm 1 m/S 692 mmHg 86%
    19:00 +13°C° 0.1 mm 1 m/S 692 mmHg 90%
    20:00 +12°C° 0.1 mm 1 m/S 692 mmHg 90%
    21:00 +12°C° 0.1 mm 1 m/S 692 mmHg 91%
    22:00 +11°C° 0.1 mm 1 m/S 692 mmHg 91%
    23:00 +11°C° 0 mm 1 m/S 692 mmHg 91%
    Mehr zeigen